www.pogodaiklimat.ru

Погода и климат >> Архив погоды >> Фиджи >> Оно-и-Лау


ПОГОДА на Оно-и-Лау

  • Прогноз погоды на Оно-и-Лау
  • Монитор погоды на Оно-и-Лау

АРХИВ ПОГОДЫ на Оно-и-Лау

Время (UTC), дата Ветер
(напр.,м/с)
 
Видим.   Явления Облачность Т
(С)
Тd
(С)
f
(%)
Тe
(С)
Тes
(С)
Комфортность P
(гПа)
Po
(гПа)
Тmin
(С)
Tmax
(С)
R
(мм)
R24
(мм)
S
(см)
06 13.06 СВ 3 н/о н/о +22.7 +19.7 83 +29 +29 очень
душно
1012.8 1009.6
09 13.06 СВ 3 н/о н/о +22.3 +19.5 84 +28 +28 душно 1014.2 1011.0
12 13.06 В 2 н/о н/о +22.3 +19.9 86 +28 +28 душно 1014.1 1010.9
15 13.06 СВ 5 н/о н/о +21.0 +19.7 92 +26 +26 душно 1013.5 1010.3
18 13.06 СВ 4 н/о н/о +21.9 +18.6 82 +27 +27 душно 1014.3 1011.1
21 13.06 СВ 4 н/о н/о +24.5 +18.0 67 +29 +29 душно 1016.0 1012.8
00 14.06 СВ 3 н/о н/о +25.3 +18.0 64 +30 +30 душно 1015.0 1011.8
03 14.06 СВ 4 н/о н/о +25.2 +18.1 65 +30 +30 душно 1013.3 1010.1
06 14.06 СВ 4 н/о н/о +22.6 +17.3 72 +27 +27 душно 1014.5 1011.3
09 14.06 СВ 4 н/о н/о +21.9 +16.5 71 +26 +26 душно 1016.2 1013.0
12 14.06 СВ 4 н/о н/о +21.4 +16.1 72 +25 +25 комфорт 1016.0 1012.8
15 14.06 СВ 3 н/о н/о +20.6 +15.9 74 +24 +24 комфорт 1015.2 1012.0
18 14.06 СВ 4 н/о н/о +21.3 +16.2 73 +25 +25 комфорт 1015.7 1012.5
21 14.06 СВ 3 н/о н/о +24.4 +16.2 60 +28 +28 душно 1017.5 1014.3
00 15.06 СВ 4 н/о н/о +25.2 +16.7 59 +29 +29 душно 1016.4 1013.2
03 15.06 СВ 5 н/о н/о +24.6 +16.8 62 +28 +28 душно 1014.8 1011.6
06 15.06 СВ 4 н/о н/о +22.1 +16.5 71 +26 +26 душно 1015.9 1012.7
09 15.06 СВ 4 н/о н/о +22.4 +16.1 68 +27 +27 душно 1017.4 1014.2
12 15.06 СВ 3 н/о н/о +21.3 +15.7 70 +25 +25 комфорт 1017.0 1013.8
15 15.06 СВ 5 н/о н/о +23.1 +16.8 68 +28 +28 душно 1016.4 1013.2
18 15.06 СВ 3 н/о н/о +22.9 +14.5 59 +27 +27 душно 1016.9 1013.7
21 15.06 СВ 5 н/о н/о +23.5 +16.2 64 +27 +27 душно 1018.2 1015.0
00 16.06 С 3 н/о н/о +24.4 +16.8 63 +28 +28 душно 1017.3 1014.1
03 16.06 СВ 4 н/о н/о +24.8 +17.5 64 +29 +29 душно 1015.6 1012.4
06 16.06 СВ 5 н/о н/о +23.1 +16.8 68 +28 +28 душно 1016.5 1013.3
09 16.06 СВ 5 н/о н/о +23.3 +17.2 69 +29 +29 душно 1018.0 1014.8
12 16.06 СВ 4 н/о н/о +23.3 +17.9 72 +29 +29 душно 1017.9 1014.7
15 16.06 СВ 5 н/о н/о +23.7 +18.1 71 +28 +28 душно 1017.2 1014.0
18 16.06 СВ 5 н/о н/о +23.5 +18.6 74 +28 +28 душно 1017.0 1013.8
21 16.06 СВ 5 н/о н/о +24.0 +18.8 73 +29 +29 душно 1018.6 1015.4
00 17.06 СВ 7 н/о н/о +25.8 +19.6 69 +31 +31 очень
душно
1016.5 1013.3
03 17.06 СВ 6 н/о н/о +25.1 +19.1 69 +30 +30 душно 1015.2 1012.0
06 17.06 СВ 6 н/о н/о +23.7 +19.0 75 +28 +28 душно 1016.3 1013.1
09 17.06 СВ 5 н/о н/о +23.8 +18.3 71 +28 +28 душно 1017.7 1014.5
12 17.06 СВ 6 н/о н/о +23.2 +18.6 75 +29 +29 душно 1017.6 1014.4
15 17.06 СВ 2 н/о н/о +21.8 +19.6 87 +27 +27 душно 1016.4 1013.2
18 17.06 СВ 5 н/о н/о +23.2 +19.4 79 +30 +30 очень
душно
1016.5 1013.3 0.5
21 17.06 СВ 4 н/о н/о +25.8 +19.7 69 +31 +31 очень
душно
1017.9 1014.7
00 18.06 СВ 5 н/о н/о +26.1 +19.7 68 +32 +32 очень
душно
1016.5 1013.3
03 18.06 СВ 5 н/о н/о +25.5 +18.8 66 +30 +30 душно 1014.7 1011.5
06 18.06 СВ 5 н/о н/о +23.7 +19.5 77 +29 +29 душно 1015.4 1012.2
09 18.06 СВ 5 н/о н/о +23.6 +19.5 78 +29 +29 душно 1016.5 1013.3
12 18.06 СВ 4 н/о н/о +23.9 +19.5 76 +29 +29 душно 1016.8 1013.6
15 18.06 СВ 4 н/о н/о +23.3 +19.4 79 +30 +30 очень
душно
1015.6 1012.4
18 18.06 СВ 4 н/о н/о +23.7 +20.4 82 +29 +29 душно 1015.8 1012.6
21 18.06 СВ 5 н/о н/о +26.0 +21.7 77 +33 +33 очень
душно
1017.1 1013.9
00 19.06 СВ 4 н/о н/о +26.7 +22.0 75 +34 +34 очень
душно
1016.3 1013.1
03 19.06 СВ 4 н/о н/о +26.1 +21.8 77 +34 +34 очень
душно
1014.9 1011.7
06 19.06 СВ 5 н/о н/о +24.3 +21.6 85 +31 +31 очень
душно
1015.5 1012.3
09 19.06 СВ 5 н/о н/о +24.3 +21.4 84 +31 +31 очень
душно
1016.5 1013.3
12 19.06 СВ 5 н/о н/о +24.1 +21.2 84 +30 +30 очень
душно
1016.5 1013.3
15 19.06 СВ 5 н/о н/о +23.7 +21.2 86 +30 +30 очень
душно
1015.7 1012.5
18 19.06 СВ 4 н/о н/о +23.4 +20.3 83 +31 +31 очень
душно
1015.8 1012.6
21 19.06 СВ 5 н/о н/о +25.5 +21.0 76 +32 +32 очень
душно
1017.3 1014.1
00 20.06 СВ 5 н/о н/о +26.5 +21.6 74 +34 +34 очень
душно
1015.7 1012.5
03 20.06 СВ 5 н/о н/о +25.7 +20.7 74 +32 +32 очень
душно
1014.5 1011.3

 

Местоположение метеостанции Оно-и-Лау (Фиджи): широта -20.66 долгота -178.70 высота над уровнем моря 28 м.

В архиве по умолчанию представлена погода на Оно-и-Лау за последнюю неделю. Архивные данные за месяц целиком и за предыдущие месяцы, начиная с января 2011 года, Вы можете получить, выбрав интересующий диапазон дат из раскрывающегося списка и нажав кнопку "Ввод!".


*Определитесь, кто Вы:
робот инопланетянин человек

Внимание! Время в таблицах - всемирное. Для получения местного времени необходимо прибавить поправку, которая равна 12 ч.

Смотрите также архив погоды в соседних городах и на ближайших метеорологических станциях:

Погода на Лакемба (Фиджи) (270 км)
Погода в Аэропорту Фуаамоту (Тонга) (374 км)
Погода на Острове Хаапай (Тонга) (465 км)
Погода в Аэропорту Вавау (Тонга) (548 км)
Погода на Острове Ниуафооу (Тонга) (653 км)
Погода на Острове Футуна (Уоллис и Футуна) (709 км)
Погода в Аэропорту Матаахо (Тонга) (738 км)
Погода на Острове Увеа (Уоллис и Футуна) (867 км)
Погода в Ниуэ аэропорту (Кука Острова) (937 км)
Погода на Острове Рауль (Новая Зеландия) (959 км)

Пояснения к столбцам:

Ветер - указаны скорость ветра в м/с - средняя за 10 мин, порывы в срок и между сроками (в фигурных скобках) и направление, откуда дует ветер: С - северный, СВ - северо-восточный, В - восточный, ЮВ - юго-восточный, Ю - южный, ЮЗ - юго-западный, З - западный, СЗ - северо-западный.
Видимость - горизонтальная дальность видимости в метрах или километрах. При видимости от 1 до 10 км при отсутствии осадков обычно наблюдается дымка, при ухудшении видимости до 1 км и менее - туман. В сухую погоду видимость может ухудшаться дымом, пылью или мглою.
Явления - указаны атмосферные явления, наблюдавшиеся в срок или в последний час перед сроком; фигурными скобками обозначены явления, наблюдавшиеся между сроками (за 1-3 часа до срока); квадратными скобками обозначены град или гололедные отложения с указанием их диаметра в мм.
Облачность - указаны через наклонную черту общая и нижняя облачность в баллах и высота нижней границы облаков в метрах; квадратными скобками обозначены формы облаков: Ci - перистые, Cs - перисто-слоистые, Cc - перисто-кучевые, Ac - высококучевые, As - высокослоистые, Sc - слоисто-кучевые, Ns - слоисто-дождевые, Cu - кучевые, Cb - кучево-дождевые. Подробнее классификацию облаков см. в Атласе облаков (PDF).
T - Температура воздуха - температура, измеренная на высоте 2 м над землей.
Td - Температура точки росы - температура, при понижении до которой содержащийся в воздухе водяной пар достигнет насыщения.
f - Относительная влажность воздуха - влажноcть воздуха, измеренная на высоте 2 м над землей.
Te - Эффективная температура - температура, которую ощущает одетый по сезону человек в тени. Характеристика душности погоды. При расчете учитывается влияние влажности воздуха и скорости ветра на теплоощущения человека.
Tes - Эффективная температура на солнце - температура, которую ощущает человек, с поправкой на солнечный нагрев. Характеристика знойности погоды. Зависит от высоты солнца над горизонтом, облачности и скорости ветра. Ночью, в пасмурную погоду, а также при ветре 12 м/с и более поправка равна нулю.
P - Атмосферное давление - приведенное к уровню моря атмосферное давление.
Po - Атмосферное давление - измеренное на уровне метеостанции атмосферное давление.
Tmin - Минимальная температура - минимум температуры воздуха на высоте 2 м над землей.
Tmax - Максимальная температура - максимум температуры воздуха на высоте 2 м над землей.
R - Количество осадков - Количество выпавших осадков за период времени, мм. При наведении курсора мыши на число - период времени, за который выпало указанное количество осадков.
R24 - Количество осадков - Количество выпавших осадков за 24 часа, мм.
S - Снежный покров - Высота снежного покрова, см. При наведении курсора мыши на число - состояние снежного покрова и степень покрытия местности в баллах.